Regional Weather Roundup
Issued by NWS

Home | Current Version | Previous Version | Text Only | Print | Product List | Glossary Off
Versions: 1 2 3 4 5 6 7 8 9 10 11 12 13 14 15 16 17 18 19 20 21 22 23 24 25 26 27

000
ASUS45 KTFX 231610
RWRMT
MONTANA REGIONAL WEATHER ROUNDUP
NATIONAL WEATHER SERVICE GREAT FALLS MT
1000 AM MDT MON OCT 23 2017

NOTE: "FAIR" INDICATES FEW OR NO CLOUDS BELOW 12000 FEET WITH NO
SIGNIFICANT WEATHER AND/OR OBSTRUCTIONS TO VISIBILITY.

MTZ001>007-043-231700-
WEST OF THE DIVIDE

CITY           SKY/WX    TMP DP  RH WIND       PRES   REMARKS
KALISPELL      SUNNY     41  33  73 CALM      30.58R
MISSOULA       MOSUNNY   38  36  92 CALM      30.62R
BUTTE          SUNNY     41  24  51 NE5       30.58R
MULLAN PASS    CLOUDY    31  28  89 W5        30.58R
ANACONDA         N/A     43  25  49 W10       30.59R
DEER LODGE       N/A     39  32  75 CALM      30.61R
EUREKA           N/A     43  30  61 MISG      30.57R
HAMILTON         N/A     46  34  61 SE3       30.61R
LIBBY            N/A     36  32  87 CALM      30.60R
PLAINS           N/A     44  33  65 CALM      30.58
$$

MTZ008-052>055-231700-
SOUTHWEST MONTANA

CITY           SKY/WX    TMP DP  RH WIND       PRES   REMARKS
BOZEMAN        SUNNY     46  26  45 NW12      30.56R
DILLON         CLOUDY    44  24  45 W13       30.57R
W YELLOWSTONE  SUNNY     37  19  48 SW9       30.56S WCI  31
ENNIS          SUNNY     43  25  49 CALM      30.62R
THREE FORKS      N/A     49  21  33 W9        30.48R
TWIN BRIDGES     N/A     44  23  43 CALM      30.49
$$

MTZ009-010-012-014-046-048-049-054-231700-
EAST SLOPES AND CENTRAL MONTANA

CITY           SKY/WX    TMP DP  RH WIND       PRES   REMARKS
CUT BANK       SUNNY     46  24  42 W17       30.43R
GREAT FALLS    SUNNY     47  25  42 W15G23    30.46R
MALMSTROM AFB  SUNNY     47  27  45 SW16G26   30.46R
HELENA         SUNNY     48  27  44 W16       30.54R
BOWMANS CRNR     N/A     45  22  41 W14       30.46R
CHOTEAU          N/A     48  21  34 W21       30.46R
FAIRFIELD        N/A     47  21  35 W21       30.44R
POWER            N/A     44  25  46 SW8       30.44R
RAYNESFORD       N/A     46  24  41 W24G30    30.45R
ULM              N/A     47  26  43 W18       30.47R
$$

MTZ011-013-016-021-045-047-050-051-231700-
NORTH CENTRAL MONTANA

CITY           SKY/WX    TMP DP  RH WIND       PRES   REMARKS
HAVRE          SUNNY     43  29  57 SW15      30.37R
LEWISTOWN      SUNNY     43  24  47 W8        30.44R
N BAR RANCH      N/A     45  21  39 W18       30.44R
CHINOOK          N/A     46  27  46 W13       30.36R
DENTON           N/A     48  25  40 W23       30.39R
GEYSER           N/A     44  26  49 W14       30.44R
GRASS RANGE      N/A     45  24  44 W21       30.39R
JUDITH GAP       N/A     46  19  33 NW26G39   30.43R
STANFORD         N/A     46  21  37 NW23G32   30.44R
WINIFRED         N/A     47  25  41 W14       30.41R
$$

MTZ017>020-022>027-061-062-231700-
NORTHEAST MONTANA

CITY           SKY/WX    TMP DP  RH WIND       PRES   REMARKS
GLASGOW        SUNNY     46  28  49 NW16      30.28R
JORDAN           N/A     49  27  42 W18G25    30.33R
SIDNEY         SUNNY     48  31  51 W20       30.20R
WOLF POINT     SUNNY     46  30  53 W14       30.25R
MALTA          SUNNY     46  28  49 W20G29    30.32R
PLENTYWOOD       N/A     45  30  57 NW22G30   30.15R
POPLAR           N/A     46  28  49 W15G21    30.23R
SCOBEY           N/A     45  25  45 W15       30.17
$$

MTZ028>42-056>058-231700-
SOUTHCENTRAL AND SOUTHEAST MONTANA

CITY           SKY/WX    TMP DP  RH WIND       PRES   REMARKS
BAKER          SUNNY     46  30  53 NW22G31   30.26R
BILLINGS       MOSUNNY   51  26  37 NW20      30.44R
LIVINGSTON     MOSUNNY   48  24  39 W18G31    30.51R
MILES CITY     SUNNY     51  29  42 NW20      30.32R
BIG TIMBER     SUNNY     48  23  37 W25G35    30.51R
EKALAKA          N/A     44  25  47 W18       30.24R
FORSYTH          N/A     52  23  32 W20G31    30.37R
HARLOWTON        N/A     45  24  44 W26G32    30.45R
LAUREL           N/A     52  27  37 NW13      30.47R
$$

REGIONAL REPORTS...DAKOTAS

CITY           SKY/WX    TMP DP  RH WIND       PRES   REMARKS
WILLISTON      SUNNY     46  34  61 W12       30.16R
MINOT          CLOUDY    47  35  63 W24       30.05R
DICKINSON      SUNNY     49  33  54 NW22G35   30.15R
BEACH            N/A     46  27  46 NW22G31   30.25R
CROSBY           N/A     46  34  61 NW23G30   30.11R
TIOGA          CLOUDY    43  36  75 NW22      30.12S
BISMARCK       MOSUNNY   49  36  61 NW16G26   30.10R
GRAND FORKS    CLOUDY    47  37  68 NW25G35   29.90R
FARGO          CLOUDY    47  40  76 NW21G30   29.89R
BUFFALO SD       N/A     49  27  42 NW36G43   30.18R
RAPID CITY     SUNNY     53  22  29 NW30G44   30.28R
$$

REGIONAL REPORTS...WYOMING/IDAHO/WASHINGTON

CITY           SKY/WX    TMP DP  RH WIND       PRES   REMARKS
GILLETTE       SUNNY     48  22  35 NW28G35   30.38R
SHERIDAN       MOSUNNY   52  26  36 NW30G36   30.42R
BUFFALO WY     MOSUNNY   47  20  34 N17G29    30.42R
CODY           SUNNY     49  20  31 W8        30.47R
YELLOWSTONE LA   N/A     33  20  58 VRB6      30.57R WCI  28
IDAHO FALLS    CLOUDY    41  40  96 SW12      30.59R
SALMON         SUNNY     38  32  79 CALM      30.64R
BOISE          SUNNY     44  41  89 SE6       30.65R
SPOKANE        MOSUNNY   39  38  96 S9        30.61R
$$

REGIONAL REPORTS...ALBERTA

CITY           SKY/WX    TMP DP  RH WIND       PRES   REMARKS
EDMONTON       SUNNY     43  30  61 W10       30.27R
CALGARY        MOSUNNY   46  18  31 W20G32    30.34R
LETHBRIDGE     MOSUNNY   48  25  40 W18G25    30.39R
MEDICINE HAT   MOSUNNY   46  27  46 W12       30.36R
$$

REGIONAL REPORTS...SASKATCHEWAN

CITY           SKY/WX    TMP DP  RH WIND       PRES   REMARKS
SWIFT CURRENT  PTSUNNY   39  25  56 W18       30.24R WCI  30
REGINA         PTSUNNY   41  34  75 NW21G29   30.11R
SASKATOON      MOSUNNY   43  36  75 W20G25    30.15R
$$




USA.gov is the U.S. government's official web portal to all federal, state and local government web resources and services.